• In Hungary
  • List of Countries
  • For 7 days
  • Water Temperature
  • Satellite Maps
  • Weather Map
  • News
  • Weather Widgets
  • user-avatar
    Login

    Hourly Weather Chernomorec

    Today, 19 October, Thursday

    Time Temperature Precipitation Wind Pressure Humidity
    00:00 +16°C° 0 mm 1 mps 764 mmHg 56%
    01:00 +16°C° 0 mm 1 mps 764 mmHg 56%
    02:00 +15°C° 0 mm 0 mps 763 mmHg 56%
    03:00 +15°C° 0 mm 0 mps 763 mmHg 55%
    04:00 +14°C° 0 mm 0 mps 763 mmHg 55%
    05:00 +14°C° 0 mm 0 mps 763 mmHg 54%
    06:00 +15°C° 0 mm 0 mps 763 mmHg 52%
    07:00 +16°C° 0 mm 0 mps 763 mmHg 50%
    08:00 +20°C° 0 mm 1 mps 763 mmHg 46%
    09:00 +22°C° 0 mm 1 mps 763 mmHg 42%
    10:00 +24°C° 0 mm 1 mps 763 mmHg 37%
    11:00 +26°C° 0 mm 1 mps 763 mmHg 32%
    12:00 +27°C° 0 mm 1 mps 763 mmHg 31%
    13:00 +27°C° 0 mm 2 mps 762 mmHg 30%
    14:00 +28°C° 0 mm 2 mps 762 mmHg 29%
    15:00 +26°C° 0 mm 2 mps 762 mmHg 35%
    16:00 +25°C° 0 mm 2 mps 762 mmHg 41%
    17:00 +23°C° 0 mm 2 mps 762 mmHg 47%
    18:00 +21°C° 0 mm 2 mps 762 mmHg 52%
    19:00 +20°C° 0 mm 2 mps 762 mmHg 58%
    20:00 +19°C° 0 mm 2 mps 762 mmHg 63%
    21:00 +18°C° 0 mm 2 mps 762 mmHg 64%
    22:00 +19°C° 0 mm 1 mps 762 mmHg 65%
    23:00 +18°C° 0 mm 1 mps 762 mmHg 67%

    Tomorrow, 20 October, Friday

    Time Temperature Precipitation Wind Pressure Humidity
    00:00 +18°C° 0 mm 1 mps 762 mmHg 67%
    01:00 +18°C° 0 mm 1 mps 762 mmHg 67%
    02:00 +18°C° 0 mm 1 mps 762 mmHg 67%
    03:00 +16°C° 0 mm 1 mps 762 mmHg 66%
    04:00 +16°C° 0 mm 1 mps 762 mmHg 65%
    05:00 +16°C° 0 mm 1 mps 762 mmHg 65%
    06:00 +18°C° 0 mm 1 mps 762 mmHg 62%
    07:00 +19°C° 0 mm 1 mps 762 mmHg 59%
    08:00 +19°C° 0 mm 1 mps 762 mmHg 56%
    09:00 +22°C° 0 mm 1 mps 763 mmHg 49%
    10:00 +24°C° 0 mm 1 mps 763 mmHg 42%
    11:00 +26°C° 0 mm 1 mps 763 mmHg 35%
    12:00 +27°C° 0 mm 1 mps 763 mmHg 33%
    13:00 +27°C° 0 mm 1 mps 762 mmHg 31%
    14:00 +28°C° 0 mm 1 mps 762 mmHg 29%
    15:00 +27°C° 0 mm 2 mps 762 mmHg 33%
    16:00 +25°C° 0 mm 2 mps 762 mmHg 36%
    17:00 +24°C° 0 mm 2 mps 762 mmHg 40%
    18:00 +23°C° 0 mm 2 mps 762 mmHg 43%
    19:00 +20°C° 0 mm 2 mps 762 mmHg 45%
    20:00 +19°C° 0 mm 2 mps 762 mmHg 48%
    21:00 +20°C° 0 mm 1 mps 762 mmHg 48%
    22:00 +19°C° 0 mm 1 mps 762 mmHg 49%
    23:00 +19°C° 0 mm 1 mps 763 mmHg 49%

    Day after tomorrow, 21 October, Saturday

    Time Temperature Precipitation Wind Pressure Humidity
    00:00 +19°C° 0 mm 1 mps 763 mmHg 50%
    01:00 +18°C° 0 mm 1 mps 763 mmHg 51%
    02:00 +18°C° 0 mm 1 mps 762 mmHg 52%
    03:00 +18°C° 0 mm 1 mps 762 mmHg 53%
    04:00 +17°C° 0 mm 2 mps 762 mmHg 54%
    05:00 +16°C° 0 mm 2 mps 762 mmHg 55%
    06:00 +17°C° 0 mm 2 mps 762 mmHg 54%
    07:00 +18°C° 0 mm 2 mps 762 mmHg 53%
    08:00 +19°C° 0 mm 2 mps 762 mmHg 52%
    09:00 +21°C° 0 mm 2 mps 762 mmHg 47%
    10:00 +24°C° 0 mm 1 mps 762 mmHg 41%
    11:00 +26°C° 0 mm 1 mps 762 mmHg 36%
    12:00 +26°C° 0 mm 1 mps 762 mmHg 34%
    13:00 +27°C° 0 mm 1 mps 762 mmHg 33%
    14:00 +27°C° 0 mm 1 mps 761 mmHg 31%
    15:00 +26°C° 0 mm 1 mps 761 mmHg 35%
    16:00 +25°C° 0 mm 1 mps 761 mmHg 39%
    17:00 +23°C° 0 mm 2 mps 761 mmHg 43%
    18:00 +22°C° 0 mm 1 mps 761 mmHg 46%
    19:00 +21°C° 0 mm 1 mps 761 mmHg 49%
    20:00 +20°C° 0 mm 1 mps 762 mmHg 52%
    21:00 +19°C° 0 mm 1 mps 762 mmHg 52%
    22:00 +19°C° 0 mm 1 mps 762 mmHg 53%
    23:00 +19°C° 0 mm 1 mps 762 mmHg 54%

    22 October, Sunday

    Time Temperature Precipitation Wind Pressure Humidity
    00:00 +18°C° 0 mm 1 mps 762 mmHg 54%
    01:00 +18°C° 0 mm 1 mps 761 mmHg 55%
    02:00 +18°C° 0 mm 1 mps 761 mmHg 55%
    03:00 +16°C° 0 mm 1 mps 761 mmHg 56%
    04:00 +16°C° 0 mm 1 mps 761 mmHg 57%
    05:00 +16°C° 0 mm 1 mps 761 mmHg 57%
    06:00 +16°C° 0 mm 1 mps 761 mmHg 56%
    07:00 +18°C° 0 mm 1 mps 761 mmHg 54%
    08:00 +19°C° 0 mm 1 mps 762 mmHg 53%
    09:00 +21°C° 0 mm 1 mps 762 mmHg 48%
    10:00 +22°C° 0 mm 1 mps 762 mmHg 43%
    11:00 +24°C° 0 mm 1 mps 762 mmHg 37%
    12:00 +25°C° 0 mm 2 mps 761 mmHg 36%
    13:00 +25°C° 0 mm 2 mps 761 mmHg 36%
    14:00 +25°C° 0 mm 2 mps 761 mmHg 35%
    15:00 +24°C° 0 mm 2 mps 761 mmHg 41%
    16:00 +22°C° 0 mm 3 mps 761 mmHg 47%
    17:00 +20°C° 0 mm 3 mps 761 mmHg 53%
    18:00 +19°C° 0 mm 3 mps 761 mmHg 61%
    19:00 +18°C° 0 mm 3 mps 761 mmHg 69%
    20:00 +17°C° 0 mm 3 mps 761 mmHg 77%
    21:00 +16°C° 0 mm 3 mps 761 mmHg 80%
    22:00 +16°C° 0 mm 3 mps 761 mmHg 82%
    23:00 +16°C° 0 mm 3 mps 761 mmHg 85%

    23 October, Monday

    Time Temperature Precipitation Wind Pressure Humidity
    00:00 +16°C° 0 mm 3 mps 761 mmHg 87%
    01:00 +14°C° 0 mm 3 mps 760 mmHg 89%
    02:00 +14°C° 0 mm 3 mps 760 mmHg 91%
    03:00 +14°C° 0 mm 3 mps 760 mmHg 91%
    04:00 +14°C° 0 mm 3 mps 760 mmHg 92%
    05:00 +14°C° 0 mm 3 mps 759 mmHg 93%
    06:00 +14°C° 0 mm 3 mps 759 mmHg 91%
    07:00 +15°C° 0 mm 4 mps 759 mmHg 89%
    08:00 +17°C° 0 mm 4 mps 759 mmHg 87%
    09:00 +18°C° 0 mm 4 mps 759 mmHg 80%
    10:00 +19°C° 0 mm 5 mps 759 mmHg 72%
    11:00 +20°C° 0 mm 5 mps 758 mmHg 64%
    12:00 +21°C° 0 mm 5 mps 758 mmHg 62%
    13:00 +21°C° 0 mm 5 mps 758 mmHg 60%
    14:00 +21°C° 0 mm 5 mps 757 mmHg 58%
    15:00 +20°C° 0 mm 6 mps 757 mmHg 64%
    16:00 +19°C° 0 mm 6 mps 757 mmHg 71%
    17:00 +17°C° 0 mm 6 mps 757 mmHg 78%
    18:00 +17°C° 0 mm 6 mps 757 mmHg 80%
    19:00 +16°C° 0 mm 6 mps 758 mmHg 82%
    20:00 +16°C° 0 mm 7 mps 758 mmHg 85%
    21:00 +16°C° 0 mm 7 mps 758 mmHg 84%
    22:00 +16°C° 0 mm 7 mps 758 mmHg 83%
    23:00 +16°C° 0 mm 7 mps 758 mmHg 83%

    24 October, Tuesday

    Time Temperature Precipitation Wind Pressure Humidity
    00:00 +15°C° 0.1 mm 7 mps 758 mmHg 83%
    01:00 +15°C° 0.1 mm 7 mps 758 mmHg 84%
    02:00 +15°C° 0.1 mm 7 mps 758 mmHg 84%
    03:00 +15°C° 0.1 mm 7 mps 758 mmHg 84%
    04:00 +15°C° 0.1 mm 7 mps 759 mmHg 84%
    05:00 +15°C° 0.1 mm 7 mps 759 mmHg 84%
    06:00 +15°C° 0.1 mm 7 mps 759 mmHg 83%
    07:00 +15°C° 0.1 mm 7 mps 759 mmHg 82%
    08:00 +15°C° 0.1 mm 8 mps 759 mmHg 81%
    09:00 +16°C° 0.1 mm 8 mps 760 mmHg 79%
    10:00 +16°C° 0.1 mm 8 mps 760 mmHg 77%
    11:00 +17°C° 0.1 mm 8 mps 760 mmHg 75%
    12:00 +17°C° 0.1 mm 9 mps 760 mmHg 75%
    13:00 +16°C° 0.1 mm 9 mps 760 mmHg 75%
    14:00 +16°C° 0.1 mm 9 mps 760 mmHg 76%
    15:00 +16°C° 0.1 mm 9 mps 760 mmHg 77%
    16:00 +16°C° 0.1 mm 9 mps 761 mmHg 78%
    17:00 +14°C° 0.1 mm 10 mps 761 mmHg 79%
    18:00 +14°C° 0.1 mm 10 mps 761 mmHg 79%
    19:00 +14°C° 0.1 mm 10 mps 762 mmHg 79%
    20:00 +13°C° 0.1 mm 10 mps 762 mmHg 78%
    21:00 +13°C° 0 mm 10 mps 763 mmHg 78%
    22:00 +13°C° 0 mm 10 mps 763 mmHg 78%
    23:00 +13°C° 0 mm 10 mps 763 mmHg 78%
    Show more